Weather History for Brunswick, GA

Change the Weather History Date:

Tuesday, December 4, 2012

  Actual Average Record
Temperature  
Mean Temperature 66 °F -  
Max Temperature 78 °F 67 °F 81 °F (1983)
Min Temperature 55 °F 44 °F 30 °F (1960)
Cooling Degree Days 2    
Growing Degree Days 16 (Base 50)    
Moisture  
Dew Point 60 °F    
Average Humidity 84    
Maximum Humidity 100    
Minimum Humidity 51    
Precipitation  
Precipitation 0.00 in - - ()
Sea Level Pressure  
Sea Level Pressure 30.29 in    
Wind  
Wind Speed 1 mph (SSE)    
Max Wind Speed 6 mph    
Max Gust Speed -    
Visibility 8 miles    
Events      
Averages and records for this station are not official NWS values.
T = Trace of Precipitation, MM = Missing Value Source: NWS Daily Summary

Daily Weather History Graph

Daily Weather History Graph

Search for Another Location

Airport:

Trip Planner

Search our weather history database for the weather conditions in past years. The results will help you decide how hot, cold, wet, or windy it might be!

Date:

Astronomy

Dec. 04, 2012 Rise Set
Actual Time 7:09 AM EST 5:22 PM EST
Civil Twilight 6:43 AM EST 5:49 PM EST
Nautical Twilight 6:13 AM EST 6:19 PM EST
Astronomical Twilight 5:43 AM EST 6:48 PM EST
Moon 10:54 PM EST (12/4) 11:15 AM EST (12/4)
Length of Visible Light 11h 06m
Length of Day
10h 13m
Waning Gibbous, 69% of the Moon is Illuminated
Dec 4
Waning Gibbous
Dec 6
Last Quarter
Dec 13
New
Dec 20
First Quarter
Dec 28
Full

Hourly Weather History & Observations

Time (EST) Temp. Dew Point Humidity Pressure Visibility Wind Dir Wind Speed Gust Speed Precip Events Conditions
12:15 AM 59.0 °F 57.2 °F 94% 30.30 in 0.2 mi Calm Calm - N/A   Overcast
12:35 AM 59.0 °F 59.0 °F 100% 30.30 in 0.2 mi Calm Calm - N/A   Overcast
12:55 AM 59.0 °F 57.2 °F 94% 30.29 in 0.2 mi Calm Calm - N/A   Overcast
1:15 AM 59.0 °F 59.0 °F 100% 30.29 in 0.5 mi Calm Calm - N/A   Overcast
1:35 AM 59.0 °F 59.0 °F 100% 30.29 in 0.8 mi Calm Calm - N/A   Overcast
1:55 AM 59.0 °F 59.0 °F 100% 30.29 in 7.0 mi Calm Calm - N/A   Overcast
2:15 AM 59.0 °F 59.0 °F 100% 30.29 in 10.0 mi Calm Calm - N/A   Overcast
2:35 AM 59.0 °F 59.0 °F 100% 30.29 in 10.0 mi Calm Calm - N/A   Overcast
2:55 AM 59.0 °F 59.0 °F 100% 30.28 in 10.0 mi Calm Calm - N/A   Overcast
3:15 AM 59.0 °F 59.0 °F 100% 30.28 in 7.0 mi Calm Calm - N/A   Overcast
3:35 AM 59.0 °F 59.0 °F 100% 30.28 in 5.0 mi Calm Calm - N/A   Overcast
3:55 AM 59.0 °F 59.0 °F 100% 30.28 in 10.0 mi Calm Calm - N/A   Overcast
4:15 AM 60.8 °F 59.0 °F 94% 30.28 in 10.0 mi Calm Calm - N/A   Overcast
4:35 AM 60.8 °F 60.8 °F 100% 30.28 in 10.0 mi Calm Calm - N/A   Overcast
4:55 AM 60.8 °F 60.8 °F 100% 30.28 in 10.0 mi Calm Calm - N/A   Overcast
5:15 AM 60.8 °F 60.8 °F 100% 30.29 in 10.0 mi Calm Calm - N/A   Overcast
5:35 AM 60.8 °F 60.8 °F 100% 30.29 in 10.0 mi Calm Calm - N/A   Overcast
5:55 AM 60.8 °F 60.8 °F 100% 30.29 in 10.0 mi Calm Calm - N/A   Overcast
6:15 AM 62.6 °F 60.8 °F 94% 30.30 in 10.0 mi Calm Calm - N/A   Overcast
6:35 AM 60.8 °F 60.8 °F 100% 30.30 in 10.0 mi Calm Calm - N/A   Overcast
6:55 AM 62.6 °F 62.6 °F 100% 30.31 in 10.0 mi Calm Calm - N/A   Overcast
7:15 AM 62.6 °F 60.8 °F 94% 30.32 in 10.0 mi Calm Calm - N/A   Overcast
7:35 AM 62.6 °F 60.8 °F 94% 30.32 in 10.0 mi Calm Calm - N/A   Overcast
7:55 AM 62.6 °F 62.6 °F 100% 30.33 in 10.0 mi Calm Calm - N/A   Overcast
8:15 AM 64.4 °F 62.6 °F 94% 30.33 in 10.0 mi Calm Calm - N/A   Overcast
8:35 AM 64.4 °F 64.4 °F 100% 30.34 in 10.0 mi Calm Calm - N/A   Overcast
8:55 AM 66.2 °F 64.4 °F 94% 30.34 in 10.0 mi Calm Calm - N/A   Overcast
9:15 AM 68.0 °F 66.2 °F 94% 30.35 in 10.0 mi Calm Calm - N/A   Overcast
9:35 AM 69.8 °F 66.2 °F 88% 30.35 in 10.0 mi Calm Calm - N/A   Overcast
9:55 AM 69.8 °F 66.2 °F 88% 30.36 in 10.0 mi Calm Calm - N/A   Overcast
10:15 AM 71.6 °F 66.2 °F 83% 30.36 in 10.0 mi Calm Calm - N/A   Overcast
10:35 AM 73.4 °F 64.4 °F 73% 30.36 in 10.0 mi Calm Calm - N/A   Overcast
10:55 AM 75.2 °F 64.4 °F 69% 30.35 in 10.0 mi Calm Calm - N/A   Overcast
11:15 AM 77.0 °F 62.6 °F 61% 30.34 in 10.0 mi Calm Calm - N/A   Overcast
11:35 AM 77.0 °F 60.8 °F 57% 30.34 in 10.0 mi SE 3.5 mph - N/A   Overcast
11:55 AM 77.0 °F 60.8 °F 57% 30.33 in 10.0 mi SSE 5.8 mph - N/A   Overcast
12:15 PM 77.0 °F 59.0 °F 54% 30.32 in 10.0 mi South 5.8 mph - N/A   Overcast
12:35 PM 78.8 °F 59.0 °F 51% 30.31 in 10.0 mi SSE 5.8 mph - N/A   Overcast
12:55 PM 78.8 °F 59.0 °F 51% 30.30 in 10.0 mi South 4.6 mph - N/A   Overcast
1:15 PM 78.8 °F 59.0 °F 51% 30.30 in 10.0 mi SSE 4.6 mph - N/A   Overcast
1:35 PM 78.8 °F 59.0 °F 51% 30.29 in 10.0 mi SSE 4.6 mph - N/A   Overcast
1:55 PM 78.8 °F 59.0 °F 51% 30.28 in 10.0 mi SSE 5.8 mph - N/A   Overcast
2:15 PM 78.8 °F 59.0 °F 51% 30.27 in 10.0 mi South 4.6 mph - N/A   Overcast
2:35 PM 78.8 °F 59.0 °F 51% 30.27 in 10.0 mi SSE 3.5 mph - N/A   Overcast
2:55 PM 78.8 °F 59.0 °F 51% 30.27 in 10.0 mi Calm Calm - N/A   Overcast
3:15 PM 77.0 °F 59.0 °F 54% 30.27 in 10.0 mi SSE 3.5 mph - N/A   Overcast
3:35 PM 78.8 °F 59.0 °F 51% 30.27 in 10.0 mi Calm Calm - N/A   Overcast
3:55 PM 77.0 °F 59.0 °F 54% 30.27 in 10.0 mi SE 4.6 mph - N/A   Mostly Cloudy
4:15 PM 77.0 °F 59.0 °F 54% 30.27 in 10.0 mi SE 4.6 mph - N/A   Scattered Clouds
4:35 PM 77.0 °F 59.0 °F 54% 30.27 in 10.0 mi Calm Calm - N/A   Clear
4:55 PM 75.2 °F 59.0 °F 57% 30.27 in 10.0 mi SE 3.5 mph - N/A   Clear
5:15 PM 73.4 °F 59.0 °F 61% 30.27 in 10.0 mi Calm Calm - N/A   Clear
5:35 PM 69.8 °F 59.0 °F 68% 30.27 in 10.0 mi Calm Calm - N/A   Clear
5:55 PM 64.4 °F 60.8 °F 88% 30.27 in 10.0 mi Calm Calm - N/A   Clear
6:15 PM 64.4 °F 60.8 °F 88% 30.27 in 10.0 mi Calm Calm - N/A   Clear
6:35 PM 62.6 °F 59.0 °F 88% 30.27 in 10.0 mi Calm Calm - N/A   Clear
6:55 PM 60.8 °F 59.0 °F 94% 30.27 in 10.0 mi Calm Calm - N/A   Clear
7:15 PM 60.8 °F 59.0 °F 94% 30.27 in 10.0 mi Calm Calm - N/A   Clear
7:35 PM 59.0 °F 57.2 °F 94% 30.27 in 10.0 mi Calm Calm - N/A   Clear
7:55 PM 59.0 °F 57.2 °F 94% 30.27 in 10.0 mi Calm Calm - N/A   Clear
8:15 PM 59.0 °F 57.2 °F 94% 30.27 in 10.0 mi Calm Calm - N/A   Clear
8:35 PM 59.0 °F 59.0 °F 100% 30.27 in 10.0 mi Calm Calm - N/A   Clear
8:55 PM 59.0 °F 59.0 °F 100% 30.27 in 10.0 mi Calm Calm - N/A   Clear
9:15 PM 59.0 °F 57.2 °F 94% 30.27 in 1.5 mi Calm Calm - N/A   Unknown
9:35 PM 57.2 °F 55.4 °F 94% 30.27 in 0.8 mi Calm Calm - N/A   Unknown
9:55 PM 55.4 °F 55.4 °F 100% 30.27 in 1.0 mi Calm Calm - N/A   Unknown
10:15 PM 57.2 °F 55.4 °F 94% 30.27 in 0.8 mi Calm Calm - N/A   Unknown
10:35 PM 55.4 °F 55.4 °F 100% 30.27 in 0.5 mi Calm Calm - N/A   Unknown
10:55 PM 57.2 °F 55.4 °F 94% 30.26 in 0.5 mi Calm Calm - N/A   Unknown
11:15 PM 55.4 °F 55.4 °F 100% 30.26 in 7.0 mi Calm Calm - N/A   Clear
11:35 PM 55.4 °F 55.4 °F 100% 30.26 in 1.0 mi Calm Calm - N/A   Unknown
11:55 PM 55.4 °F 53.6 °F 94% 30.26 in 0.2 mi Calm Calm - N/A   Unknown